Temp
18 18 18 18 18 18 18 17 17 17 16 16 16 16 15 16 15 15 14 14 14 14 14 14 14 14 14 14 13 13 13 12 13 12 12 13 13 13 12 13 12 12 12
17 17 17 18 18 18 18 17 17 17 16 16 16 16 15 15 15 15 14 14 14 14 14 14 14 14 14 13 13 13 13 13 12 12 12 12 12 12 12 12 12 12 12
16 16 17 17 17 17 17 17 16 16 16 16 16 15 15 14 14 14 14 14 14 14 14 14 14 14 14 13 13 12 12 12 12 12 12 12 12 12 12 12 11 11 12
15 16 16 16 16 16 16 16 16 16 16 15 15 15 15 14 14 14 14 14 14 13 14 14 14 14 14 13 13 12 12 11 11 12 12 12 12 12 12 11 11 11 11
16 15 15 16 15 15 16 16 15 16 15 16 16 15 14 14 14 13 14 14 14 13 13 13 13 13 13 13 13 12 12 12 11 11 12 12 12 11 11 11 11 11 11
15 15 14 15 15 15 15 16 15 16 16 16 16 15 14 14 13 13 13 13 13 13 13 13 13 13 13 13 12 12 12 12 12 12 12 12 12 11 11 11 11 10 10
14 14 15 15 14 15 15 15 16 15 15 15 15 14 14 14 13 13 13 13 13 13 13 12 12 12 12 12 12 12 12 12 12 12 12 11 11 11 11 10 10 9 9
14 14 14 14 14 14 14 14 15 15 15 15 14 14 13 13 13 13 13 13 13 13 12 12 12 12 12 13 12 12 11 12 12 12 12 12 11 11 11 10 10 8 8
14 14 14 13 13 13 14 14 14 15 15 14 13 13 12 13 13 13 13 13 13 13 12 11 12 12 12 12 12 12 11 11 11 11 12 11 11 11 10 10 10 8 7
12 12 13 13 13 12 13 13 13 14 15 14 13 14 11 11 12 12 12 12 13 12 13 11 11 12 12 12 12 12 11 11 11 11 11 11 11 11 10 10 9 8 8
10 10 11 12 12 12 12 12 13 13 14 14 13 13 14 12 12 13 12 13 12 12 12 12 11 12 12 12 12 12 12 10 11 10 11 11 11 11 10 10 10 8 7
9 9 9 10 11 12 12 13 12 12 13 13 14 13 13 12 11 12 11 14 12 13 13 12 10 12 11 12 11 12 12 11 11 10 10 11 11 11 10 10 9 8 7
9 9 9 9 10 11 12 12 12 12 12 12 13 13 14 12 13 14 12 12 13 12 13 12 12 12 12 12 11 11 10 10 10 10 11 10 11 10 10 10 9 8 7
7 9 9 8 9 10 11 11 11 12 12 11 12 11 12 11 13 13 14 12 12 12 12 13 12 14 13 12 12 11 10 10 10 10 10 11 10 10 10 9 9 8 7
8 8 9 9 9 9 9 11 11 12 12 12 12 13 11 11 13 13 13 13 13 10 10 12 10 14 13 12 12 11 11 10 10 10 10 10 10 10 9 9 9 9 8
8 8 7 8 9 9 10 11 11 12 12 12 12 12 11 12 13 13 13 13 13 13 12 12 13 13 13 12 12 11 11 11 10 10 10 10 10 10 9 9 9 9 8
6 7 7 7 8 8 11 10 11 12 11 11 12 13 13 12 13 13 13 13 12 12 12 12 12 12 11 11 11 11 10 11 10 10 10 10 10 10 9 9 8 9 8
4 5 6 7 8 9 10 10 12 12 11 12 12 13 13 13 13 13 13 12 12 12 12 12 12 11 11 11 11 11 10 10 10 10 10 10 10 10 9 9 8 8 8
3 4 5 6 7 8 10 11 11 11 11 12 12 12 13 12 12 11 11 12 11 11 11 13 12 11 11 10 10 10 10 10 9 10 9 9 9 10 10 9 9 8 7
1 2 3 4 5 6 8 10 11 11 11 10 11 11 12 11 12 13 13 11 11 9 11 11 11 11 10 10 9 10 9 10 9 10 9 9 9 9 10 9 8 7 7
-1 -0 1 2 4 4 6 9 9 10 11 9 10 11 10 11 10 10 11 10 9 10 11 11 11 10 9 9 10 9 9 9 9 9 9 9 9 9 9 9 8 7 7
-2 -2 -1 -0 1 3 3 6 7 8 8 8 10 11 10 10 9 10 11 10 9 10 11 11 11 10 10 9 9 9 9 9 9 9 9 9 9 9 9 9 8 7 7
-3 -3 -3 -3 -2 -1 1 3 4 7 8 8 9 9 9 9 10 11 11 10 10 10 10 10 10 10 10 9 9 9 9 9 9 9 9 9 9 9 9 9 7 8 7
-4 -4 -4 -4 -4 -3 -1 0 1 3 4 6 6 6 8 9 9 9 9 9 10 9 9 9 9 9 9 9 9 9 10 9 9 8 8 8 8 7 7 7 7 7 6
-4 -5 -5 -4 -5 -5 -3 -1 0 0 1 1 1 0 4 5 8 7 8 9 9 9 9 9 9 8 8 8 8 8 8 8 8 8 8 7 6 5 4 4 5 6 6
-5 -5 -4 -5 -5 -5 -5 -3 -2 -1 -0 -1 0 1 1 0 3 4 5 6 7 8 8 8 8 8 8 8 8 8 8 8 8 7 6 5 4 3 0 1 2 4 5
Height
1490 1493 1494 1495 1496 1497 1497 1499 1500 1502 1504 1507 1509 1512 1514 1515 1518 1520 1521 1524 1526 1527 1526 1527 1528 1530 1532 1534 1535 1538 1539 1540 1544 1550 1552 1554 1556 1557 1559 1560 1563 1565 1566
1486 1487 1489 1489 1491 1491 1493 1494 1495 1497 1499 1502 1505 1506 1508 1511 1512 1514 1517 1520 1521 1523 1524 1524 1524 1526 1527 1529 1530 1533 1535 1536 1537 1545 1549 1552 1554 1556 1558 1559 1561 1562 1564
1480 1481 1481 1482 1483 1485 1487 1489 1492 1493 1495 1496 1498 1502 1503 1506 1508 1509 1512 1515 1517 1519 1520 1521 1522 1521 1522 1524 1526 1528 1530 1533 1537 1540 1545 1548 1551 1553 1555 1558 1559 1560 1561
1476 1475 1474 1477 1481 1482 1483 1485 1487 1488 1490 1491 1493 1495 1498 1500 1502 1504 1505 1508 1511 1514 1516 1517 1518 1518 1517 1519 1520 1522 1525 1525 1518 1536 1541 1544 1547 1550 1552 1555 1556 1558 1559
1469 1470 1470 1472 1477 1475 1477 1479 1481 1483 1484 1486 1487 1490 1492 1494 1496 1498 1499 1499 1503 1508 1510 1512 1513 1513 1513 1513 1515 1518 1520 1520 1521 1527 1535 1539 1543 1547 1549 1551 1553 1555 1557
1464 1463 1463 1464 1468 1471 1470 1471 1473 1476 1478 1479 1481 1483 1485 1489 1492 1493 1494 1495 1496 1499 1504 1506 1507 1507 1508 1509 1510 1513 1515 1517 1516 1522 1530 1534 1538 1542 1546 1548 1550 1551 1553
1458 1457 1456 1456 1459 1461 1463 1466 1467 1469 1470 1473 1476 1477 1478 1479 1483 1487 1488 1490 1491 1492 1497 1499 1501 1502 1503 1503 1505 1507 1510 1513 1514 1518 1522 1527 1533 1537 1541 1544 1546 1547 1549
1450 1451 1450 1450 1450 1452 1454 1457 1460 1464 1465 1468 1469 1470 1469 1474 1474 1477 1482 1483 1486 1487 1488 1493 1494 1495 1496 1497 1498 1501 1505 1507 1510 1513 1515 1520 1527 1532 1535 1539 1541 1542 1544
1442 1442 1443 1442 1442 1444 1444 1447 1450 1455 1458 1460 1462 1466 1435 1458 1471 1474 1474 1478 1480 1482 1482 1485 1488 1488 1490 1490 1492 1494 1498 1501 1504 1506 1510 1513 1520 1525 1529 1533 1535 1537 1540
1435 1433 1432 1434 1434 1435 1435 1438 1440 1444 1448 1449 1453 1455 1448 1445 1466 1470 1469 1470 1473 1474 1474 1478 1479 1481 1482 1484 1484 1487 1490 1493 1495 1498 1501 1507 1512 1518 1523 1527 1529 1532 1534
1426 1425 1424 1423 1424 1425 1427 1429 1430 1433 1438 1440 1442 1449 1451 1452 1457 1465 1464 1463 1465 1465 1466 1469 1471 1474 1473 1477 1477 1479 1482 1485 1488 1491 1494 1498 1504 1510 1517 1520 1524 1527 1529
1418 1417 1415 1414 1413 1415 1418 1420 1420 1423 1427 1432 1435 1439 1441 1443 1441 1445 1451 1452 1455 1456 1459 1461 1465 1463 1466 1467 1471 1473 1475 1477 1480 1483 1486 1485 1495 1503 1510 1515 1518 1522 1524
1411 1410 1408 1405 1404 1405 1406 1410 1410 1412 1415 1420 1425 1428 1432 1433 1434 1435 1444 1448 1445 1450 1452 1454 1456 1456 1458 1459 1465 1466 1468 1470 1471 1472 1475 1480 1487 1498 1504 1509 1513 1516 1519
1405 1403 1400 1399 1396 1395 1395 1400 1401 1402 1405 1410 1411 1414 1421 1423 1427 1430 1433 1438 1440 1443 1445 1445 1449 1448 1450 1451 1458 1460 1462 1464 1467 1469 1472 1473 1484 1492 1499 1503 1506 1510 1513
1399 1397 1393 1391 1389 1385 1384 1389 1393 1394 1397 1400 1400 1405 1408 1413 1419 1423 1424 1428 1432 1434 1433 1435 1442 1441 1444 1446 1452 1454 1457 1459 1463 1466 1470 1475 1481 1487 1492 1497 1500 1504 1507
1396 1391 1388 1385 1380 1377 1378 1379 1383 1385 1387 1391 1394 1396 1398 1403 1407 1410 1414 1419 1424 1426 1426 1431 1433 1435 1438 1440 1445 1448 1451 1455 1459 1460 1465 1470 1475 1480 1484 1489 1493 1497 1501
1391 1387 1383 1378 1375 1372 1371 1371 1374 1377 1379 1382 1383 1388 1389 1393 1398 1403 1407 1412 1415 1419 1422 1425 1429 1432 1432 1435 1439 1442 1446 1450 1454 1458 1459 1464 1468 1473 1477 1482 1487 1492 1497
1387 1383 1379 1376 1370 1368 1365 1365 1367 1368 1371 1373 1375 1376 1378 1382 1388 1393 1398 1404 1409 1412 1415 1417 1421 1424 1427 1430 1434 1435 1439 1444 1448 1451 1455 1459 1462 1466 1470 1476 1481 1485 1490
1385 1379 1375 1372 1366 1363 1360 1358 1359 1362 1364 1366 1366 1366 1369 1372 1376 1382 1389 1396 1401 1404 1409 1409 1415 1418 1422 1426 1428 1430 1433 1437 1441 1443 1448 1451 1454 1458 1462 1468 1473 1478 1483
1384 1378 1373 1370 1363 1358 1354 1354 1354 1355 1356 1357 1356 1358 1360 1365 1372 1377 1382 1389 1393 1396 1399 1402 1404 1410 1414 1419 1421 1424 1427 1430 1434 1437 1440 1443 1447 1451 1455 1461 1466 1471 1476
1384 1379 1376 1370 1362 1355 1349 1347 1347 1347 1345 1346 1344 1350 1354 1356 1362 1372 1378 1378 1379 1384 1388 1393 1397 1402 1406 1409 1412 1417 1421 1424 1427 1430 1432 1435 1439 1443 1448 1452 1457 1462 1468
1385 1383 1378 1369 1361 1354 1349 1345 1343 1343 1345 1337 1343 1346 1336 1352 1361 1367 1369 1369 1372 1374 1380 1385 1389 1395 1399 1402 1407 1410 1414 1416 1419 1422 1424 1428 1432 1435 1439 1442 1448 1454 1459
1394 1389 1379 1372 1363 1358 1351 1345 1341 1341 1341 1340 1333 1341 1344 1351 1357 1360 1361 1363 1363 1368 1374 1380 1383 1387 1392 1397 1401 1403 1406 1409 1412 1415 1417 1418 1422 1426 1429 1433 1438 1444 1450
1401 1395 1386 1378 1369 1362 1357 1351 1342 1339 1338 1336 1338 1333 1341 1346 1349 1352 1354 1353 1359 1364 1368 1373 1377 1381 1385 1389 1392 1396 1399 1400 1402 1405 1406 1410 1412 1416 1418 1422 1427 1434 1441
1408 1401 1394 1385 1379 1373 1366 1357 1351 1348 1346 1343 1343 1342 1336 1341 1343 1347 1350 1350 1354 1358 1363 1367 1370 1375 1378 1382 1385 1386 1387 1390 1392 1395 1396 1399 1402 1407 1411 1415 1419 1424 1431
1414 1408 1401 1395 1389 1382 1375 1367 1360 1354 1350 1349 1351 1345 1341 1341 1341 1344 1346 1348 1346 1352 1356 1360 1363 1366 1368 1371 1374 1377 1379 1380 1382 1383 1387 1392 1395 1399 1405 1409 1411 1415 1422
Wind_Speed
29 30 30 30 31 30 31 31 31 30 29 28 25 23 21 19 19 17 20 21 20 21 21 19 18 19 22 23 24 25 26 26 27 29 28 27 26 25 23 20 18 16 15
31 32 32 33 33 32 31 31 31 31 32 31 28 26 25 22 20 19 17 21 22 21 21 19 19 19 21 25 25 26 28 29 38 32 31 29 28 26 24 21 19 16 14
31 34 35 37 36 35 33 29 31 29 27 31 32 27 23 22 21 20 20 19 22 21 23 22 21 20 21 22 25 28 28 32 37 35 34 31 30 27 24 22 19 16 14
32 33 33 35 34 33 34 33 31 32 31 29 31 30 26 24 23 23 22 23 23 25 24 24 22 21 22 23 24 27 28 29 44 38 36 34 32 29 26 23 20 17 15
28 31 34 35 33 41 37 36 36 35 35 32 31 30 28 28 26 26 26 26 25 25 27 25 25 23 21 23 23 23 26 23 36 39 37 35 33 31 26 24 21 17 16
27 30 31 34 37 39 39 42 42 40 39 36 34 32 31 29 27 28 27 26 25 26 25 25 25 24 23 24 24 24 25 24 33 36 38 36 35 32 27 24 21 19 18
29 27 32 34 35 38 41 44 40 42 45 43 40 36 35 33 29 25 24 24 25 25 24 26 27 28 26 24 27 28 26 28 37 38 37 37 36 33 28 24 22 24 23
34 34 34 34 36 37 41 44 43 45 42 42 43 36 27 32 30 29 29 28 26 24 25 27 27 28 26 24 27 31 30 28 40 39 39 41 38 35 32 26 25 22 25
35 38 40 38 36 34 38 42 45 42 46 43 38 22 22 11 22 31 33 31 31 30 28 29 33 28 26 25 26 29 34 35 39 40 44 42 40 36 33 30 28 25 25
29 35 42 44 41 36 37 40 43 42 41 45 38 30 19 7 8 10 31 36 36 35 32 32 30 28 27 27 26 27 35 38 39 44 49 45 43 38 34 32 29 27 27
26 27 33 41 46 43 37 38 44 45 42 44 44 41 36 39 41 33 26 30 42 42 35 35 32 31 28 27 26 25 29 38 40 45 36 54 44 38 34 31 28 25 27
27 25 24 29 36 42 39 40 44 46 46 45 47 48 39 46 48 45 38 34 33 35 35 32 33 29 29 27 27 28 25 30 43 51 39 42 44 38 34 31 27 26 28
29 25 24 24 28 34 39 37 40 46 47 46 44 47 46 51 47 42 38 30 29 32 29 33 31 28 28 27 28 25 26 27 28 38 31 51 43 37 34 30 27 26 28
30 28 29 30 30 28 36 40 32 41 47 42 40 34 43 55 59 49 47 40 27 31 33 31 30 25 27 26 27 22 21 27 32 27 31 40 33 33 32 30 26 26 23
31 32 31 33 32 29 29 38 34 36 40 41 40 43 51 60 53 46 43 45 43 24 33 34 31 25 24 26 29 24 24 23 30 25 27 32 29 34 32 31 28 25 23
27 29 30 32 32 29 28 32 36 35 42 45 45 47 49 51 50 43 42 41 40 37 30 35 31 23 22 24 30 28 24 24 30 27 35 34 38 38 36 31 29 26 26
26 26 27 29 28 28 28 30 34 35 33 36 45 45 49 51 50 48 44 39 37 38 38 31 23 18 23 22 27 33 32 27 27 27 24 37 35 38 37 34 32 30 30
24 24 25 26 26 23 26 30 29 29 35 35 42 43 47 54 53 49 50 38 33 37 40 34 28 24 26 25 25 28 35 37 36 36 33 33 33 38 38 38 37 35 34
23 21 22 22 23 22 18 22 24 30 32 38 40 47 45 41 47 47 39 32 36 39 42 28 32 29 28 27 25 25 27 32 37 37 33 36 35 37 41 41 42 38 38
21 19 18 18 17 19 19 19 23 25 33 37 43 42 43 41 50 38 40 37 38 49 44 34 33 31 30 29 25 28 29 28 30 33 32 33 33 35 40 41 41 38 39
24 22 18 16 16 17 16 17 20 26 32 46 28 37 33 33 27 38 38 36 37 43 39 34 31 30 32 29 30 30 30 30 34 32 32 32 34 34 40 45 44 41 41
29 28 26 25 22 19 20 15 14 20 20 23 29 30 25 27 30 29 31 29 35 37 33 34 30 31 32 29 27 29 27 36 38 36 33 32 33 36 39 45 48 44 43
32 32 33 34 33 27 25 14 8 10 15 15 20 28 27 29 27 25 28 26 23 27 31 31 29 33 31 30 29 30 29 33 37 36 40 39 38 38 43 51 47 46 45
38 39 39 39 41 37 27 21 16 8 2 12 13 15 22 24 22 28 33 29 26 31 31 28 30 31 31 27 29 29 30 37 39 36 38 39 42 41 46 46 49 50 48
35 38 40 42 44 44 39 30 26 25 22 18 10 4 13 16 23 23 21 27 32 27 28 26 25 26 30 31 34 35 38 39 38 40 41 43 42 39 36 35 39 42 44
31 33 36 38 39 42 44 42 36 33 32 30 25 20 12 7 13 16 17 19 20 23 23 24 27 29 31 32 32 37 37 41 44 37 40 42 40 41 27 31 33 37 41
Wind_Direction
235 236 237 236 237 238 238 239 240 241 243 243 243 241 238 234 236 239 233 231 233 238 242 242 243 234 236 236 236 226 218 211 216 215 210 204 200 197 198 198 204 213 221
240 242 242 241 240 241 241 241 242 244 246 245 245 245 242 238 232 233 238 233 234 236 235 236 240 242 246 243 237 229 227 220 215 214 211 207 203 201 201 205 209 216 224
243 243 245 245 243 241 241 241 242 244 248 246 244 241 236 234 232 232 236 239 237 233 231 234 239 250 247 242 239 234 222 227 228 213 211 209 206 204 207 212 216 219 225
255 250 244 244 249 247 244 242 241 242 247 247 243 236 231 231 233 238 240 243 242 237 238 237 243 253 248 240 240 238 232 214 225 210 211 210 209 208 210 215 218 223 227
247 256 256 249 242 253 247 245 244 242 243 247 242 234 234 234 234 236 239 238 240 241 240 245 249 254 246 242 241 232 226 238 211 210 212 212 211 212 214 218 221 225 231
246 246 253 263 255 250 248 246 243 246 245 244 245 239 237 238 236 240 241 239 239 240 244 247 251 255 249 241 239 235 229 219 208 209 216 213 214 214 216 221 225 229 234
250 251 251 252 258 258 253 249 248 247 243 241 239 237 233 231 230 237 240 242 240 237 242 245 250 253 255 241 235 235 233 223 202 205 214 218 216 215 217 220 237 235 236
253 249 253 255 253 257 257 255 252 247 250 247 241 238 221 225 222 227 236 236 242 237 237 244 251 259 247 236 235 233 229 225 212 211 209 219 217 216 218 220 231 231 231
259 254 250 255 258 255 260 259 255 252 248 244 242 255 192 203 227 231 233 239 241 236 235 241 249 250 245 238 239 238 233 226 229 233 216 216 216 218 219 221 224 231 232
269 262 256 251 253 255 257 259 260 253 249 242 232 228 301 343 233 261 240 233 233 238 240 243 247 244 246 242 239 246 238 233 239 225 213 215 215 216 220 222 225 234 225
294 279 266 259 254 252 257 259 258 255 251 246 231 226 253 228 233 243 257 244 233 236 237 239 240 241 243 244 242 239 243 230 233 216 211 221 212 214 218 221 228 236 224
312 306 287 269 261 257 252 256 258 257 254 251 251 250 248 220 222 218 222 233 230 232 230 234 241 241 236 238 237 239 250 237 229 225 239 228 215 213 217 222 228 227 224
315 312 305 297 278 261 249 249 255 252 254 254 256 257 254 228 222 225 220 230 230 230 231 231 237 237 235 234 238 239 248 241 235 229 231 206 208 212 216 221 227 226 226
312 313 305 303 297 277 256 241 254 252 250 252 238 243 251 235 229 235 236 224 221 224 228 232 236 234 232 229 230 236 240 232 227 215 201 197 205 210 218 223 227 227 232
313 309 304 300 296 293 269 240 248 251 247 247 231 231 237 229 236 238 240 236 231 215 224 234 237 233 232 228 224 229 228 217 216 219 221 211 216 218 224 225 230 233 234
314 312 304 301 295 288 281 250 243 252 250 245 242 237 236 238 242 235 237 234 237 235 237 242 237 245 229 230 223 224 222 222 217 221 221 211 218 220 223 225 229 229 231
315 315 313 312 294 287 283 259 244 248 245 244 248 238 242 240 236 231 231 233 239 236 236 242 234 241 235 230 231 225 223 215 209 211 218 216 221 225 223 223 226 228 227
325 322 314 309 299 295 269 258 257 243 245 248 249 249 242 236 230 236 230 230 243 239 231 230 237 233 231 233 227 226 228 227 224 228 229 227 228 230 226 224 225 225 224
338 332 325 310 302 292 284 248 249 250 246 259 256 253 246 232 219 216 225 234 253 241 232 238 237 236 238 231 228 232 228 228 232 233 233 236 238 238 230 228 224 225 223
353 346 339 338 325 311 275 255 247 248 246 258 256 247 244 226 216 229 233 242 248 245 228 223 221 227 233 228 229 229 222 227 228 227 225 227 227 229 230 229 225 223 223
22 14 1 357 355 346 313 268 251 259 251 270 246 237 227 231 213 230 230 240 236 232 222 219 217 223 229 228 217 224 230 238 231 233 238 231 227 225 227 231 221 219 222
39 36 32 27 21 5 347 293 258 253 253 233 234 236 215 198 198 224 235 235 239 219 221 219 219 217 222 227 232 235 234 233 230 239 236 231 231 232 234 227 224 219 223
41 43 46 42 37 33 25 15 4 262 251 228 192 202 206 208 229 231 222 228 227 212 215 219 216 222 225 229 232 239 245 237 243 246 240 231 236 236 234 225 224 221 220
45 44 46 49 48 43 42 45 49 39 248 217 187 164 189 207 217 219 225 204 211 215 213 213 217 229 228 236 237 246 254 243 235 242 228 232 227 223 221 220 222 221 220
45 46 47 47 47 46 47 53 58 61 57 48 38 56 163 185 203 203 219 206 207 220 210 211 217 234 241 238 242 237 235 235 234 227 226 226 218 211 209 208 215 224 227
45 45 47 46 47 45 43 45 52 58 59 61 55 41 28 29 194 195 198 205 197 204 211 223 235 242 243 243 239 236 240 238 238 232 228 218 215 206 191 202 203 209 219